User: anonymous   Login
Location: Asheville, NC
(35.6000°N, 82.5500°W)
Time: 11:04:34
(UTC-04:00)
Language:

PicSat - Orbit

View from above orbital plane
View from above orbital plane
View from above satellite
View from above satellite

Ground track
Ground track

The orbit data is extracted from the following two-line orbital elements,

1 43131U 18004W   18144.70856395 +.00001563 +00000-0 +70081-4 0  9991
2 43131 097.5356 207.3336 0010140 170.8321 189.3102 15.22714474020149
Epoch (UTC): 24 May 2018 17:00:19
Eccentricity: 0.0010140
inclination: 97.5356°
perigee height: 490 km
apogee height: 504 km
right ascension of ascending node: 207.3336°
argument of perigee: 170.8321°
revolutions per day: 15.22714474
mean anomaly at epoch: 189.3102°
orbit number at epoch: 2014

The dashed part of the orbit path shows where the satellite is in the earth's shadow,  

DLR